Weather History for L'viv, Ukraine

Change the Weather History Date:

Thursday, February 7, 2013

  Actual Average Record
Temperature  
Mean Temperature 31 °F -  
Max Temperature 33 °F 36 °F 57 °F (2009)
Min Temperature 29 °F 23 °F -5 °F (2005)
Degree Days  
Heating Degree Days 34    
Moisture  
Dew Point 31 °F    
Average Humidity 97    
Maximum Humidity 100    
Minimum Humidity 87    
Precipitation  
Precipitation 0.01 in 0.06 in - ()
Sea Level Pressure  
Sea Level Pressure 29.53 in    
Wind  
Wind Speed 6 mph ()    
Max Wind Speed 11 mph    
Max Gust Speed -    
Visibility 2.6 miles    
Events Fog , Rain , Snow    
Averages and records for this station are not official NWS values.
T = Trace of Precipitation, MM = Missing Value Source: Averaged Metar Reports

Daily Weather History Graph

Daily Weather History Graph

Search for Another Location

Airport:

Trip Planner

Search our weather history database for the weather conditions in past years. The results will help you decide how hot, cold, wet, or windy it might be!

Date:

Astronomy

Feb. 07, 2013 Rise Set
Actual Time 7:47 AM EET 5:29 PM EET
Civil Twilight 7:13 AM EET 6:03 PM EET
Nautical Twilight 6:35 AM EET 6:41 PM EET
Astronomical Twilight 5:58 AM EET 7:19 PM EET
Moon 5:20 AM EET (2/7) 2:22 PM EET (2/7)
Length of Visible Light 10h 49m
Length of Day
9h 41m
Waning Crescent, 11% of the Moon is Illuminated
Feb 7
Waning Crescent
Feb 10
New
Feb 17
First Quarter
Feb 25
Full
Mar 4
Last Quarter

Hourly Weather History & Observations

Time (EET) Temp. Windchill Dew Point Humidity Pressure Visibility Wind Dir Wind Speed Gust Speed Precip Events Conditions
12:00 AM 33.8 °F - 30.2 °F 87% 29.50 in 5.6 mi Calm Calm - N/A   Overcast
12:30 AM 32.0 °F 27.6 °F 30.2 °F 93% 29.50 in - ESE 4.5 mph - N/A   Clear
1:00 AM 33.8 °F 29.7 °F 30.2 °F 87% 29.50 in - ESE 4.5 mph - N/A   Clear
1:30 AM 32.0 °F 25.7 °F 30.2 °F 93% 29.53 in 5.0 mi SSE 6.7 mph - N/A   Unknown
2:00 AM 33 °F - 31 °F 87% 29.58 in 6 mi SE 4.5 mph - -   Mostly Cloudy
2:00 AM 33.8 °F 29.7 °F 30.2 °F 87% 29.50 in 6.2 mi SE 4.5 mph - N/A   Unknown
2:30 AM 32.0 °F 25.7 °F 30.2 °F 93% 29.50 in 5.0 mi SE 6.7 mph - N/A   Unknown
3:00 AM 32.0 °F 27.6 °F 30.2 °F 93% 29.50 in 5.0 mi ESE 4.5 mph - N/A   Unknown
3:30 AM 32.0 °F - 30.2 °F 93% 29.50 in 5.0 mi Calm Calm - N/A   Unknown
4:00 AM 30.2 °F 25.5 °F 28.4 °F 93% 29.50 in 3.7 mi SE 4.5 mph - N/A   Unknown
4:30 AM 30.2 °F 25.5 °F 28.4 °F 93% 29.50 in 3.1 mi ESE 4.5 mph - N/A   Mist
4:43 AM 30.2 °F 23.5 °F 28.4 °F 93% 29.50 in 3.1 mi SE 6.7 mph - N/A   Overcast
5:00 AM 30 °F - 28 °F 91% 29.59 in 2 mi WNW 4.5 mph - -   Mist
5:00 AM 30.2 °F 23.5 °F 30.2 °F 100% 29.50 in 2.5 mi ESE 6.7 mph - N/A   Overcast
5:10 AM 30.2 °F 23.5 °F 30.2 °F 100% 29.50 in - ESE 6.7 mph - N/A   Overcast
5:21 AM 30.2 °F 23.5 °F 30.2 °F 100% 29.53 in 1.7 mi SE 6.7 mph - N/A   Overcast
5:30 AM 30.2 °F 23.5 °F 30.2 °F 100% 29.53 in 0.8 mi SE 6.7 mph - N/A   Overcast
6:00 AM 30.2 °F 23.5 °F 30.2 °F 100% 29.50 in 0.7 mi ESE 6.7 mph - N/A   Overcast
6:30 AM 30.2 °F 23.5 °F 30.2 °F 100% 29.50 in 0.8 mi SE 6.7 mph - N/A   Overcast
7:00 AM 30.2 °F 23.5 °F 30.2 °F 100% 29.50 in 0.7 mi ESE 6.7 mph - N/A   Overcast
7:14 AM 30.2 °F 20.9 °F 30.2 °F 100% 29.50 in 0.3 mi ESE 11.2 mph - N/A Fog Light Freezing Fog
7:30 AM 30.2 °F 20.9 °F 30.2 °F 100% 29.50 in 0.2 mi ESE 11.2 mph - N/A Fog Light Freezing Fog
8:00 AM 30 °F - 29 °F 96% 29.58 in 0 mi SE 8.9 mph - - Fog Heavy Fog
8:00 AM 30.2 °F 22.1 °F 30.2 °F 100% 29.50 in 0.5 mi SE 8.9 mph - N/A Fog Light Freezing Fog
8:30 AM 30.2 °F 23.5 °F 30.2 °F 100% 29.50 in 0.6 mi ESE 6.7 mph - N/A   Overcast
9:00 AM 30.2 °F 23.5 °F 30.2 °F 100% 29.50 in 0.7 mi ESE 6.7 mph - N/A   Overcast
9:30 AM 30.2 °F 22.1 °F 30.2 °F 100% 29.50 in 0.7 mi ESE 8.9 mph - N/A   Overcast
10:00 AM 30.2 °F 22.1 °F 30.2 °F 100% 29.50 in 1.1 mi SE 8.9 mph - N/A   Overcast
10:30 AM 30.2 °F 22.1 °F 30.2 °F 100% 29.50 in 1.0 mi ESE 8.9 mph - N/A   Overcast
10:35 AM 30.2 °F 20.9 °F 30.2 °F 100% 29.50 in 2.2 mi ESE 11.2 mph - N/A   Overcast
11:00 AM 31 °F - 30 °F 93% 29.59 in 2 mi SE 11.2 mph - -   Mist
11:00 AM 30.2 °F 20.9 °F 30.2 °F 100% 29.50 in 1.6 mi SE 11.2 mph - N/A   Overcast
11:30 AM 30.2 °F 20.9 °F 30.2 °F 100% 29.50 in 1.3 mi SE 11.2 mph - N/A   Overcast
12:00 PM 30.2 °F 20.9 °F 30.2 °F 100% 29.50 in - SE 11.2 mph - N/A   Overcast
12:30 PM 32.0 °F 24.3 °F 30.2 °F 93% 29.50 in - SE 8.9 mph - N/A   Overcast
1:00 PM 32.0 °F 24.3 °F 32.0 °F 100% 29.50 in 2.2 mi SE 8.9 mph - N/A   Overcast
1:28 PM 32.0 °F 25.7 °F 32.0 °F 100% 29.50 in 1.7 mi SSE 6.7 mph - N/A   Overcast
1:30 PM 32.0 °F 27.6 °F 32.0 °F 100% 29.50 in 1.8 mi SSE 4.5 mph - N/A   Overcast
2:00 PM 32 °F - 31 °F 97% 29.57 in 1 mi SSE 6.7 mph - -   Mist
2:00 PM 32.0 °F 25.7 °F 32.0 °F 100% 29.50 in 1.3 mi SSE 6.7 mph - N/A   Overcast
2:30 PM 32.0 °F 25.7 °F 32.0 °F 100% 29.50 in 1.5 mi SSE 6.7 mph - N/A   Overcast
3:00 PM 33.8 °F 27.9 °F 32.0 °F 93% 29.47 in - SE 6.7 mph - N/A   Overcast
3:30 PM 33.8 °F 26.5 °F 33.8 °F 100% 29.50 in 2.5 mi SSE 8.9 mph - N/A   Overcast
4:00 PM 33.8 °F 25.4 °F 32.0 °F 93% 29.50 in - SSE 11.2 mph - N/A   Overcast
4:30 PM 33.8 °F 27.9 °F 32.0 °F 93% 29.50 in - SE 6.7 mph - N/A   Overcast
4:50 PM 32.0 °F 25.7 °F 32.0 °F 100% 29.50 in 1.8 mi SE 6.7 mph - N/A Rain , Snow Light Snow
5:00 PM 32.0 °F 24.3 °F 32.0 °F 100% 29.50 in 1.7 mi SE 8.9 mph - N/A Rain , Snow Light Snow
5:30 PM 32.0 °F 25.7 °F 32.0 °F 100% 29.50 in - SE 6.7 mph - N/A Rain , Snow Light Snow
6:00 PM 32.0 °F 25.7 °F 32.0 °F 100% 29.53 in - SSE 6.7 mph - N/A Rain , Snow Light Snow
6:30 PM 32.0 °F 27.6 °F 32.0 °F 100% 29.53 in - SSW 4.5 mph - N/A Rain , Snow Light Snow
7:00 PM 32.0 °F 25.7 °F 32.0 °F 100% 29.53 in 3.1 mi South 6.7 mph - N/A   Overcast
7:30 PM 32.0 °F 25.7 °F 32.0 °F 100% 29.56 in 3.1 mi SW 6.7 mph - N/A   Overcast
8:00 PM 33 °F - 32 °F 92% 29.64 in 2 mi SW 8.9 mph - - Snow Light Snow
8:00 PM 32.0 °F 24.3 °F 32.0 °F 100% 29.56 in - SW 8.9 mph - N/A Rain , Snow Light Snow
8:30 PM 32.0 °F 24.3 °F 32.0 °F 100% 29.59 in 3.1 mi SW 8.9 mph - N/A Rain , Snow Light Snow
9:00 PM 32.0 °F 24.3 °F 32.0 °F 100% 29.59 in - SW 8.9 mph - N/A   Overcast
9:30 PM 32.0 °F 23.2 °F 32.0 °F 100% 29.59 in 3.7 mi WSW 11.2 mph - N/A   Overcast
9:48 PM 32.0 °F 24.3 °F 32.0 °F 100% 29.62 in 3.7 mi WSW 8.9 mph - N/A   Overcast
10:00 PM 32.0 °F 24.3 °F 32.0 °F 100% 29.62 in 3.1 mi WSW 8.9 mph - N/A   Overcast
10:30 PM 32.0 °F 23.2 °F 32.0 °F 100% 29.62 in 3.1 mi WSW 11.2 mph - N/A   Overcast
11:00 PM 32 °F - 30 °F 91% 29.70 in 6 mi West 11.2 mph - -   Partly Cloudy
11:00 PM 32.0 °F 23.2 °F 30.2 °F 93% 29.62 in 6.2 mi West 11.2 mph - N/A   Overcast
11:30 PM 32.0 °F 23.2 °F 28.4 °F 87% 29.65 in 6.2 mi West 11.2 mph - N/A   Overcast